Location: Worth Mountain WMA
(34.9569°N, 81.4819°W)
Time: 03:34:12
(UTC-04:00)

Amateur Radio Satellites - All Passes

Search period start: 17 September 2014 03:04
Search period end: 18 September 2014 03:04
Location: Worth Mountain WMA, 34.9569°N, 81.4819°W

Satellite Date Start Highest point End Downlink Frequencies (MHz)
Time Altitude Azimuth
Oscar 19 17 Sep 03:04:05 03:09:17 88° 103° (ESE) 03:14:26 437.125 CW, 437.150 USB
AO-27 17 Sep 03:14:33 03:19:32 45° 100° (E) 03:24:31 436.795 MHz FM
PANSAT 17 Sep 03:32:42 03:35:37 21° 166° (SSE) 03:38:32 not established
Saudisat 1A 17 Sep 03:38:41 03:43:03 60° 59° (ENE) 03:47:24 436.775 MHz
Oscar 16 17 Sep 03:42:45 03:47:29 37° 289° (WNW) 03:52:11 437.025 USB, Beacon 2401.1428
KITSAT 1 17 Sep 03:43:56 03:46:51 12° 34° (NE) 03:49:45 435.175 FM
Gurwin Techsat 1B 17 Sep 03:50:18 03:55:25 46° 99° (E) 04:00:29 435.225 FM
ISS 17 Sep 04:02:18 04:05:38 89° 137° (SE) 04:08:58 145.800 FM
AO-Echo 17 Sep 04:19:43 04:23:57 32° 289° (WNW) 04:28:18 ?
ITAMSAT 1 17 Sep 04:19:50 04:24:42 41° 289° (WNW) 04:29:33 435.822 SSB
Uribyol 2 17 Sep 04:24:58 04:29:39 34° 290° (WNW) 04:34:19 436.500 FM
TMSAT-1 17 Sep 04:29:09 04:34:29 82° 103° (ESE) 04:39:47 436.925 FM
JAS-1B 17 Sep 04:38:39 04:43:39 31° 292° (WNW) 04:48:35 435.800 - 435.900 CW/SSB
AO-27 17 Sep 04:55:04 04:58:40 19° 294° (WNW) 05:02:17 436.795 MHz FM
RS-15 17 Sep 04:58:06 05:08:57 61° 112° (ESE) 05:19:35 29.354 - 29.394 USB, Beacon 29.352 USB
PANSAT 17 Sep 05:11:57 05:15:21 30° 179° (S) 05:18:46 not established
OPAL 17 Sep 05:19:38 05:24:47 88° 74° (ENE) 05:30:01 ?
Saudisat 1A 17 Sep 05:20:58 05:22:04 11° 253° (WSW) 05:23:10 436.775 MHz
Uosat F 17 Sep 05:26:46 05:31:37 48° 100° (E) 05:36:27 435.120 FM
Oscar 10/S400 17 Sep 05:31:09 06:19:49 15° 258° (WSW) 07:37:48 145.825 - 145.975 CW/USB, Beacon 145.810 USB
Gurwin Techsat 1B 17 Sep 05:31:18 05:34:59 19° 294° (WNW) 05:38:39 435.225 FM
KITSAT 1 17 Sep 05:36:27 05:44:19 53° 57° (ENE) 05:52:07 435.175 FM
AO-7 17 Sep 05:39:13 05:47:28 66° 104° (ESE) 05:55:40 29.400 - 29.500 MHz
ISS 17 Sep 05:41:12 05:42:46 13° 334° (NNW) 05:44:20 145.800 FM
TMSAT-1 17 Sep 06:12:14 06:13:38 11° 298° (WNW) 06:15:03 436.925 FM
JAS-2 17 Sep 06:45:16 06:51:00 43° 100° (E) 06:57:25 435.800 - 435.900 CW/SSB, 435.910 FM
Hamsat 17 Sep 06:51:21 06:55:19 37° 98° (E) 06:59:13 145.90 MHz
PANSAT 17 Sep 06:52:00 06:55:06 23° 192° (SSW) 06:58:13 not established
Uosat F 17 Sep 07:06:47 07:09:59 17° 295° (WNW) 07:13:11 435.120 FM
RS-15 17 Sep 07:11:53 07:21:46 37° 313° (NW) 07:31:38 29.354 - 29.394 USB, Beacon 29.352 USB
KITSAT 1 17 Sep 07:32:32 07:39:16 30° 254° (WSW) 07:46:00 435.175 FM
AO-7 17 Sep 07:33:11 07:39:33 26° 301° (WNW) 07:45:55 29.400 - 29.500 MHz
STRAND 1 17 Sep 07:34:54 07:39:59 84° 257° (WSW) 07:45:06 ?
Hamsat 17 Sep 08:28:28 08:30:55 15° 292° (WNW) 08:33:21 145.90 MHz
JAS-2 17 Sep 08:30:58 08:35:52 27° 291° (WNW) 08:41:15 435.800 - 435.900 CW/SSB, 435.910 FM
SO-50 17 Sep 08:34:25 08:39:06 49° 57° (ENE) 08:43:49 436.795 FM
SO-67 17 Sep 08:42:18 08:45:44 63° 283° (WNW) 08:49:08 435.3500 MHz FM
HO-68 17 Sep 09:27:38 09:33:23 26° 96° (E) 09:39:06 435.675 MHz FM
MaSat-1 17 Sep 09:30:08 09:35:07 81° 112° (ESE) 09:40:10 437.345 MHz
RS-15 17 Sep 09:34:37 09:38:50 13° 346° (NNW) 09:43:04 29.354 - 29.394 USB, Beacon 29.352 USB
UKube-1 17 Sep 10:05:23 10:08:29 19° 95° (E) 10:11:35 145.840 MHz, 145.915 MHz
SO-50 17 Sep 10:16:15 10:19:16 17° 251° (WSW) 10:22:17 436.795 FM
UOSAT-12 17 Sep 10:27:24 10:32:02 54° 58° (ENE) 10:36:34 437.025 FM, 437.400 FM
ISS 17 Sep 10:34:05 10:36:54 25° 34° (NE) 10:39:42 145.800 FM
FUNcube-1 17 Sep 11:09:20 11:13:25 31° 97° (E) 11:17:27 145.950 - 145.970 MHz USB
MaSat-1 17 Sep 11:10:22 11:12:29 13° 307° (NW) 11:14:36 437.345 MHz
HO-68 17 Sep 11:14:23 11:21:18 53° 291° (WNW) 11:28:11 435.675 MHz FM
Oscar 11 17 Sep 11:26:27 11:30:45 63° 285° (WNW) 11:35:01 145.825 FM, Beacon 2401.500 USB
UKube-1 17 Sep 11:40:51 11:44:41 31° 289° (WNW) 11:48:31 145.840 MHz, 145.915 MHz
RS-15 17 Sep 11:51:55 11:58:16 16° 25° (NNE) 12:04:41 29.354 - 29.394 USB, Beacon 29.352 USB
UOSAT-12 17 Sep 12:09:21 12:11:39 14° 253° (WSW) 12:13:56 437.025 FM, 437.400 FM
ISS 17 Sep 12:10:41 12:13:35 28° 229° (SW) 12:16:29 145.800 FM
Sapphire 17 Sep 12:37:57 12:42:40 32° 108° (ESE) 12:47:24 437.095 MHz 1200 baud AX-25 AFSK
FUNcube-1 17 Sep 12:46:03 12:49:35 22° 291° (WNW) 12:53:06 145.950 - 145.970 MHz USB
PCSat 17 Sep 13:04:31 13:09:50 63° 113° (ESE) 13:15:11 145.825 MHz
Oscar 16 17 Sep 13:18:02 13:22:06 24° 68° (ENE) 13:26:11 437.025 USB, Beacon 2401.1428
JAS-1B 17 Sep 13:28:38 13:35:22 26° 66° (ENE) 13:41:20 435.800 - 435.900 CW/SSB
AO-Echo 17 Sep 13:51:51 13:55:25 21° 68° (ENE) 13:58:56 ?
ITAMSAT 1 17 Sep 13:56:22 14:00:19 23° 67° (ENE) 14:04:16 435.822 SSB
Uribyol 2 17 Sep 14:00:51 14:05:06 27° 68° (ENE) 14:09:23 436.500 FM
RS-15 17 Sep 14:03:10 14:14:01 53° 54° (NE) 14:25:14 29.354 - 29.394 USB, Beacon 29.352 USB
Oscar 19 17 Sep 14:17:31 14:22:42 90° 172° (S) 14:27:56 437.125 CW, 437.150 USB
Sapphire 17 Sep 14:21:16 14:26:00 31° 304° (NW) 14:30:46 437.095 MHz 1200 baud AX-25 AFSK
AO-27 17 Sep 14:29:30 14:34:27 49° 72° (ENE) 14:39:26 436.795 MHz FM
AO-7 17 Sep 14:48:16 14:51:14 12° 51° (NE) 14:54:13 29.400 - 29.500 MHz
PCSat 17 Sep 14:50:09 14:53:41 17° 310° (NW) 14:57:14 145.825 MHz
Oscar 16 17 Sep 14:56:30 15:01:13 35° 262° (W) 15:05:58 437.025 USB, Beacon 2401.1428
Gurwin Techsat 1B 17 Sep 15:08:07 15:13:15 53° 73° (ENE) 15:18:24 435.225 FM
JAS-1B 17 Sep 15:16:30 15:25:31 64° 258° (WSW) 15:33:10 435.800 - 435.900 CW/SSB
Oscar 10/S400 17 Sep 15:24:23 15:43:43 32° 150° (SSE) 16:01:25 145.825 - 145.975 CW/USB, Beacon 145.810 USB
AO-Echo 17 Sep 15:29:39 15:33:58 33° 262° (W) 15:38:14 ?
ITAMSAT 1 17 Sep 15:34:48 15:39:32 37° 262° (W) 15:44:19 435.822 SSB
Uribyol 2 17 Sep 15:39:54 15:44:25 31° 263° (W) 15:48:59 436.500 FM
TMSAT-1 17 Sep 15:46:35 15:51:52 90° 256° (WSW) 15:57:11 436.925 FM
AO-27 17 Sep 16:11:01 16:14:11 16° 267° (W) 16:17:23 436.795 MHz FM
RS-15 17 Sep 16:15:56 16:26:02 41° 252° (WSW) 16:36:34 29.354 - 29.394 USB, Beacon 29.352 USB
AO-7 17 Sep 16:34:15 16:42:27 67° 69° (ENE) 16:50:39 29.400 - 29.500 MHz
Uosat F 17 Sep 16:36:51 16:41:36 46° 72° (ENE) 16:46:22 435.120 FM
Gurwin Techsat 1B 17 Sep 16:50:20 16:53:28 16° 267° (W) 16:56:38 435.225 FM
OPAL 17 Sep 17:33:27 17:38:00 31° 99° (E) 17:42:27 ?
Hamsat 17 Sep 17:42:08 17:45:14 19° 69° (ENE) 17:48:21 145.90 MHz
Saudisat 1A 17 Sep 17:42:14 17:46:12 34° 113° (ESE) 17:50:10 436.775 MHz
Uosat F 17 Sep 18:17:30 18:20:35 16° 266° (W) 18:23:40 435.120 FM
AO-7 17 Sep 18:29:29 18:35:41 23° 265° (W) 18:41:56 29.400 - 29.500 MHz
JAS-2 17 Sep 18:39:41 18:45:07 86° 257° (WSW) 18:50:19 435.800 - 435.900 CW/SSB, 435.910 FM
OPAL 17 Sep 19:12:24 19:16:43 27° 294° (WNW) 19:20:58 ?
SO-67 17 Sep 19:12:30 19:15:14 22° 72° (ENE) 19:17:58 435.3500 MHz FM
Hamsat 17 Sep 19:17:05 19:20:57 31° 263° (W) 19:24:50 145.90 MHz
Saudisat 1A 17 Sep 19:22:24 19:25:49 22° 309° (NW) 19:29:15 436.775 MHz
MaSat-1 17 Sep 19:27:21 19:31:06 85° 67° (ENE) 19:34:17 437.345 MHz
STRAND 1 17 Sep 19:49:00 19:53:53 43° 99° (E) 19:58:45 ?
HO-68 17 Sep 19:55:36 19:59:00 14° 57° (ENE) 20:02:23 435.675 MHz FM
KITSAT 1 17 Sep 20:00:33 20:08:24 57° 111° (ESE) 20:16:16 435.175 FM
SO-67 17 Sep 20:46:05 20:48:12 15° 266° (W) 20:50:19 435.3500 MHz FM
UKube-1 17 Sep 20:59:37 21:01:06 12° 65° (ENE) 21:02:35 145.840 MHz, 145.915 MHz
STRAND 1 17 Sep 21:29:07 21:32:43 20° 294° (WNW) 21:36:19 ?
Sapphire 17 Sep 21:30:06 21:33:05 15° 48° (NE) 21:36:03 437.095 MHz 1200 baud AX-25 AFSK
HO-68 17 Sep 21:38:30 21:45:38 85° 73° (ENE) 21:52:48 435.675 MHz FM
PCSat 17 Sep 21:56:17 22:00:47 26° 54° (NE) 22:05:15 145.825 MHz
KITSAT 1 17 Sep 21:57:12 22:04:09 31° 310° (NW) 22:11:08 435.175 FM
FUNcube-1 17 Sep 22:03:37 22:06:24 17° 67° (ENE) 22:09:14 145.950 - 145.970 MHz USB
Oscar 11 17 Sep 22:17:52 22:22:11 66° 76° (ENE) 22:26:31 145.825 FM, Beacon 2401.500 USB
UKube-1 17 Sep 22:32:33 22:36:47 54° 259° (W) 22:41:02 145.840 MHz, 145.915 MHz
SO-50 17 Sep 22:46:42 22:50:40 32° 113° (ESE) 22:54:42 436.795 FM
Sapphire 17 Sep 23:11:40 23:17:06 77° 246° (WSW) 23:22:30 437.095 MHz 1200 baud AX-25 AFSK
HO-68 17 Sep 23:30:37 23:34:01 14° 269° (W) 23:37:26 435.675 MHz FM
FUNcube-1 17 Sep 23:38:26 23:42:26 37° 262° (W) 23:46:35 145.950 - 145.970 MHz USB
PCSat 17 Sep 23:39:16 23:44:16 39° 250° (WSW) 23:49:14 145.825 MHz
SO-50 18 Sep 00:27:39 00:31:14 23° 309° (NW) 00:34:54 436.795 FM
UOSAT-12 18 Sep 00:35:36 00:39:45 35° 113° (ESE) 00:44:00 437.025 FM, 437.400 FM
Saudisat 1A 18 Sep 02:13:15 02:15:19 13° 46° (NE) 02:17:22 436.775 MHz
UOSAT-12 18 Sep 02:16:15 02:19:57 23° 309° (NW) 02:23:44 437.025 FM, 437.400 FM
Uribyol 2 18 Sep 02:18:40 02:20:33 12° 92° (E) 02:22:26 436.500 FM
Oscar 19 18 Sep 02:32:48 02:37:41 42° 99° (E) 02:42:31 437.125 CW, 437.150 USB
AO-27 18 Sep 02:46:29 02:50:36 23° 96° (E) 02:54:42 436.795 MHz FM
